Location: Marcé
(47.5801°N, 0.3280°W)
Time: 12:51:57
(UTC+01:00)

ISS - Pass Details

Date: 26 October 2021
Orbit: 417 x 422 km, 51.6° (Epoch: 07 December)

Event Time Altitude Azimuth Distance (km) Brightness Sun altitude
Exits shadow 07:07:51 30° 236° (SW) 780 -2.9 -15.5°
Maximum altitude 07:09:23 79° 153° (SSE) 432 -3.7 -15.2°
Drops below altitude 10° 07:12:44 10° 67° (ENE) 1,500 0.1 -14.7°
Sets 07:14:50 0° 66° (ENE) 2,365 1.3 -14.3°
